Regional Weather Roundup
Issued by NWS Upton, NY

Current Version | Previous Version | Graphics & Text | Print | Product List | Glossary Off
Versions: 1 2 3 4 5 6 7 8 9 10 11 12 13 14 15 16 17 18 19 20 21 22 23 24 25 26 27 28 29 30 31 32 33 34 35 36 37 38 39 40 41 42 43 44 45 46 47 48 49 50

000
ASUS41 KOKX 270807
RWROKX

REGIONAL WEATHER ROUNDUP
NATIONAL WEATHER SERVICE NEW YORK NY
400 AM EDT FRI MAR 27 2015

NOTE: "FAIR" INDICATES FEW OR NO CLOUDS BELOW 12,000 FEET WITH NO
SIGNIFICANT WEATHER AND/OR OBSTRUCTIONS TO VISIBILITY.

NYZ071-072-176-178-NJZ106-104-270900-
NEW YORK CITY METRO AREA


CITY           SKY/WX    TMP DP  RH WIND       PRES   REMARKS
CENTRAL PARK   LGT RAIN  42  40  92 VRB6      29.75R
LAGUARDIA APRT LGT RAIN  43  39  86 N7        29.72R
KENNEDY INTL   RAIN      44  39  82 NW12      29.73R
NEWARK/LIBERTY LGT RAIN  44  39  82 NW15      29.73R
BRNX BOT. GARD   N/A     41  39  93 N5        29.74R
TETERBORO      LGT RAIN  43  40  89 N5        29.73R
$$

NYZ177-179-078>081-270900-
LONG ISLAND NEW YORK

CITY           SKY/WX    TMP DP  RH WIND       PRES   REMARKS
FARMINGDALE    RAIN      42  39  89 NW10      29.72R
ISLIP          LGT RAIN  42  39  89 NW12      29.69R
SHIRLEY        LGT RAIN  43  41  93 NW8       29.68S
WESTHAMPTON    LGT RAIN  43  41  93 N10       29.67F
MONTAUK POINT    N/A     42  39  89 NW8       29.66R
$$

NYZ052-065-067-270900-
HUDSON VALLEY

CITY           SKY/WX    TMP DP  RH WIND       PRES   REMARKS
WHITE PLAINS   LGT RAIN  40  36  86 N7        29.70R
NEWBURGH       NOT AVBL
MONTGOMERY     CLOUDY    39  36  89 N3        29.70F
POUGHKEEPSIE   CLOUDY    39  36  89 CALM      29.71F
ALBANY         CLOUDY    37  32  82 NW3       29.73F
$$

NJZ001-105-106-008-010-013-015-019>022-104-270900-
NEW JERSEY

CITY           SKY/WX    TMP DP  RH WIND       PRES   REMARKS
NEWARK/LIBERTY LGT RAIN  44  39  82 NW15      29.73R
TETERBORO      LGT RAIN  43  40  89 N5        29.73R
CALDWELL       RAIN      41  36  82 CALM      29.73S
MORRISTOWN     LGT RAIN  43  37  81 NW3       29.74S
SOMERVILLE     LGT RAIN  42  37  82 NW7       29.73R
SUSSEX         CLOUDY    40  33  76 N3        29.74S
ANDOVER          N/A     38  35  89 N3        29.74R
TRENTON        LGT RAIN  42  38  85 N9        29.73R
MILLVILLE      LGT RAIN  45  42  89 NW13G21   29.72F
ATLANTIC CITY  CLOUDY    45  43  93 N13       29.69F
WRIGHTSTOWN    LGT RAIN  43  43  99 N10       29.71F
TOMS RIVER     CLOUDY    45  43  93 NW9       29.73F
BELMAR         CLOUDY    45  37  76 N8        29.71F
$$

PAZ047>061-062-071-270900-
EASTERN PENNSYLVANIA

CITY           SKY/WX    TMP DP  RH WIND       PRES   REMARKS
PHILADELPHIA   LGT RAIN  44  39  82 N14G22    29.76F
ALLENTOWN      LGT RAIN  40  35  83 W5        29.77R
SCRANTON       CLOUDY    38  32  79 N5        29.77S WCI  34
$$

CTZ002-004>006-009-010-012-RIZ004-006-007-MAZ004-011-015-270900-
SOUTHERN NEW ENGLAND
 IN CT

CITY           SKY/WX    TMP DP  RH WIND       PRES   REMARKS
BRADLEY INTL   LGT RAIN  41  37  86 N6        29.69R
HARTFORD       LGT RAIN  41  39  93 VRB5      29.70R
DANBURY        CLOUDY    39  33  79 N9        29.71S WCI  33
WTRBRY/OXFORD  CLOUDY    39  30  70 N10       29.69F WCI  32
BRIDGEPORT     LGT RAIN  42  38  85 NW9       29.70R
MERIDEN        LGT RAIN  42  38  85 N5        29.69F
NEW HAVEN      LGT RAIN  43  39  86 N9        29.66F
CHESTER        HVY RAIN  41  41 100 N10       29.66S
GROTON         LGT RAIN  44  43  96 NW8       29.66S
WILLIMANTIC    LGT RAIN  41  39  93 CALM      29.67R

 IN RI

CITY           SKY/WX    TMP DP  RH WIND       PRES   REMARKS
PROVIDENCE     LGT RAIN  44  41  89 N7        29.65R
BLOCK ISLAND   CLOUDY    43  39  87 N8        29.63S
WESTERLY       LGT RAIN  44  43  96 N5        29.65R FOG

 IN MA

CITY           SKY/WX    TMP DP  RH WIND       PRES   REMARKS
BOSTON         LGT RAIN  41  40  96 N8        29.65S
WORCESTER      LGT RAIN  39  36  89 N7        29.64S WCI  34
WESTFIELD      CLOUDY    39  37  92 CALM      29.69S
PROVINCETOWN   CLOUDY    41  37  87 N8        29.62S VSB 3/4
NANTUCKET      CLOUDY    45  44  97 NE3       29.58F FOG
$$

ANZ330-335-338-340-345-350-353-355-270900-
COASTAL MARINE OBSERVATIONS


STATION/POSITION TIME  SKY/WX   TEMP    WIND        PRES    VSBY  WAVE
                                AIR SEA DIR/SP/G                  HT/PER
                 (UTC)          (F)     (DEG/KT/KT) (MB)    (MI)  (FT/S)
NY HARB ENTRANCE 0750            41 38  310/  8/ 10 1006.4          6/ 9
4S FIRE IS       0703               36                N/A           9/ 8
20S FIRE ISLAND  0650               38              1005.0          9/11
23SW MTP         0750                                 N/A          10/11
HUDSON CANYON    NOT AVBL
EXECUTION ROCKS  NOT AVBL
WESTERN LI SOUND NOT AVBL
CENTRAL LI SOUND NOT AVBL
EASTERN LI SOUND NOT AVBL
ROBBINS REEF     0700            44     340/  6/  8 1004.5
$$


>>>>>>>>>>>>>>>>>>>>>>>>>>>> KEY <<<<<<<<<<<<<<<<<<<<<<<<<<<
>                                                          <
>     SKY/WX - SKY CONDITION/PRESENT WEATHER               <
>     TMP    - TEMPERATURE IN FAHRENHEIT                   <
>     DP     - DEWPOINT IN FAHRENHEIT                      <
>     RH     - RELATIVE HUMIDITY IN PERCENT                <
>     WIND   - DIRECTION AND SPEED IN MPH                  <
>     PRES   - MEAN SEA LEVEL PRESSURE IN INCHES OF HG     <
>     WCI    - WIND CHILL INDEX                            <
>     VSB    - VISIBILITY IN MILES                         <
>     HX     - HEAT INDEX                                  <
>     TC     - TEMPERATURE IN CELSIUS                      <
>     VRB    - VARIABLE WIND DIRECTION                     <
>                                                          <
>>>>>>>>>>>>>>>>>>>>>>>>>>>> KEY <<<<<<<<<<<<<<<<<<<<<<<<<<<




USA.gov is the U.S. government's official web portal to all federal, state and local government web resources and services.